Weather Roundup
Issued by NWS Springfield, MO

Home | Current Version | Previous Version | Text Only | Print | Product List | Glossary On
Versions: 1 2 3 4 5 6 7 8 9 10 11 12 13 14 15 16 17 18 19 20 21 22 23 24 25 26 27 28 29 30 31 32 33 34 35 36 37 38 39 40 41 42 43 44 45 46 47 48 49 50
000
NZUS99 KSGF 062057
HRRSGF

HOURLY WEATHER
NATIONAL WEATHER SERVICE SPRINGFIELD MO
400 PM CDT FRI MAY 06 2016

......SGF CWA......

CITY           SKY/WX    TMP DP  RH WIND       PRES   REMARKS
SPRINGFIELD    SUNNY     77  44  30 CALM      30.05F
JOPLIN         SUNNY     78  47  33 VRB3      30.05F
WEST PLAINS    SUNNY     77  44  30 NW6       30.05F
ROLLA          SUNNY     76  46  34 CALM      30.02F
BRANSON        MOSUNNY   77  39  25 N5        30.08F

......SURROUNDING SGF CWA......

CITY           SKY/WX    TMP DP  RH WIND       PRES   REMARKS
CHANUTE        SUNNY     79  50  36 S9        30.03F
PARSONS        SUNNY     80  51  36 S7        30.04F
COFFEYVILLE    SUNNY     80  50  34 S7        30.03F
EMPORIA        SUNNY     83  51  33 S12       30.00F
HARRISON AR    SUNNY     75  44  33 NW3       30.07F

......KANSAS AND MISSOURI......

CITY           SKY/WX    TMP DP  RH WIND       PRES   REMARKS
KANSAS CTY INT MOSUNNY   81  51  35 SW12      29.99F
SEDALIA        SUNNY     80  48  32 SW12      30.03F
ST JOSEPH      SUNNY     84  49  29 SW15      29.96F
ST LOUIS       MOSUNNY   80  43  26 W6        29.99F
WICHITA        MOSUNNY   83  47  28 S17       30.00F
TOPEKA         SUNNY     83  46  27 S13       29.98F
OLATHE         SUNNY     79  50  36 S8        30.01F

......TENNESSEE......

CITY           SKY/WX    TMP DP  RH WIND       PRES   REMARKS
MEMPHIS        NOT AVBL
NASHVILLE      PTSUNNY   73  42  32 N9G21     29.98F

......ARKANSAS.......

CITY           SKY/WX    TMP DP  RH WIND       PRES   REMARKS
FAYETTEVILLE   SUNNY     76  47  35 CALM      30.07F
FT SMITH       SUNNY     79  43  27 MISG      30.05F
LITTLE ROCK    SUNNY     78  41  26 VRB6      30.06F

......OKLAHOMA.......

CITY           SKY/WX    TMP DP  RH WIND       PRES   REMARKS
TULSA          MOSUNNY   81  51  35 S10       30.01F
PONCA CITY     SUNNY     83  47  28 S9        30.01F
MCALESTER      SUNNY     82  49  31 CALM      30.05F
OKLAHOMA CITY  PTSUNNY   81  49  32 S12       30.04F

......IOWA............

CITY           SKY/WX    TMP DP  RH WIND       PRES   REMARKS
DES MOINES     NOT AVBL
QUAD CITIES    SUNNY     86  46  24 W15G25    29.86F

......ILLINOIS........

CITY           SKY/WX    TMP DP  RH WIND       PRES   REMARKS
QUINCY         NOT AVBL
CHICAGO        MOSUNNY   80  48  32 SW8       29.82F




USA.gov is the U.S. government's official web portal to all federal, state and local government web resources and services.